Regional Weather Roundup
Issued by NWS

Home | Current Version | Previous Version | Text Only | Print | Product List | Glossary On
Versions: 1 2 3 4 5 6 7 8 9 10 11 12 13 14 15 16 17 18 19 20 21 22 23 24 25 26 27 28 29 30 31 32 33 34 35 36 37 38 39 40 41 42 43 44 45 46 47 48 49 50
720
ASUS43 KMPX 252101
RWRMN
WEATHER ROUNDUP FOR MINNESOTA
NATIONAL WEATHER SERVICE TWIN CITIES/CHANHASSEN MN
400 PM CDT TUE APR 25 2017


NOTE: "FAIR" INDICATES FEW OR NO CLOUDS BELOW 12,000 FEET WITH NO
SIGNIFICANT WEATHER AND/OR OBSTRUCTIONS TO VISIBILITY. N/A MEANS
CURRENT SKY AND/OR WEATHER CONDITIONS ARE NOT AVAILABLE.

MNZ060>063-068>070-252200-
   Twin Cities Metro

CITY           SKY/WX    TMP DP  RH WIND       PRES   REMARKS
TWIN CITIES    LGT RAIN  53  47  79 S3        29.56F
ST PAUL        LGT RAIN  53  50  89 CALM      29.56F FOG
CRYSTAL        LGT RAIN  54  48  80 S3        29.55S
BLAINE         DRIZZLE   57  52  82 CALM      29.55F
LAKEVILLE      RAIN      48  48 100 CALM      29.55F
EDEN PRAIRIE   LGT RAIN  52  48  86 CALM      29.54F FOG
SOUTH ST PAUL  LGT RAIN  53  49  85 CALM      29.55F
LAKE ELMO      LGT RAIN  55  50  82 CALM      29.57S
$$
MNZ001>005-007-008-013>017-022>024-027-028-252200-
   Northwest Minnesota

CITY           SKY/WX    TMP DP  RH WIND       PRES   REMARKS
BEMIDJI        CLOUDY    35  32  88 N17G23    29.72F WCI  25
HALLOCK        CLOUDY    36  27  69 NE16      29.89S
ROSEAU         CLOUDY    34  27  75 NE22      29.87S WCI  22
WARROAD        CLOUDY    32  27  80 NE20G28   29.88S WCI  20
THIEF RVR FALL CLOUDY    34  28  79 N23G30    29.79F WCI  22
CROOKSTON      CLOUDY    37  30  75 NE21G26   29.81S
FOSSTON        CLOUDY    36  36 100 N22       29.75S
DETROIT LAKES  CLOUDY    39  34  81 NE16G22   29.70R
MOORHEAD       CLOUDY    37  30  75 N25       29.75R
PARK RAPIDS    CLOUDY    40  32  73 NE17G26   29.67R
MAHNOMEN       CLOUDY    37  32  82 N21       29.71S
$$
MNZ006-009>011-018-025>026-252200-
   North Central Minnesota

CITY           SKY/WX    TMP DP  RH WIND       PRES   REMARKS
BAUDETTE       CLOUDY    33  26  75 NE18G25   29.83S WCI  22
FLAG ISLAND    CLOUDY    30  25  80 NE20G28   29.89S WCI  18
INTL FALLS     CLOUDY    32  26  78 NE18G26   29.81R WCI  20
WASKISH        CLOUDY    36  30  80 NE17G25   29.78R
BIG FORK       CLOUDY    36  30  80 N12G17    29.74R
LONGVILLE      CLOUDY    39  36  87 N8G17     29.68R
GRAND RAPIDS   CLOUDY    41  36  82 N13G20    29.69R
CRANE LAKE     CLOUDY    30  28  93 N9G17     29.80R WCI  22
ORR            CLOUDY    32  28  86 N7        29.72S WCI  26
COOK           CLOUDY    36  34  93 NE9       29.73R
WALKER         CLOUDY    37  33  85 N13G20    29.70R
$$
MNZ012-019>021-037-252200-
   Northeast Minnesota

CITY           SKY/WX    TMP DP  RH WIND       PRES   REMARKS
DULUTH         CLOUDY    51  39  63 SE15      29.61R
ELY            CLOUDY    41  37  87 N7G17     29.70R
HIBBING        CLOUDY    41  37  86 N13G22    29.67R
EVELETH        CLOUDY    44  36  74 N15G21    29.67S
DULUTH HARBOR  CLOUDY    43  39  87 NE8       29.65R
TWO HARBORS    CLOUDY    55  45  67 E12       29.61S
SILVER BAY     CLOUDY    52  39  62 NE8       29.63S
GRAND MARAIS     N/A     42  38  85 NE8       29.68R
G MARAIS ARPRT CLOUDY    43  37  81 N10G20    29.68S
$$
MNZ029>031-032-039>041-046>048-054>057-064-252200-
   West Central Minnesota

CITY           SKY/WX    TMP DP  RH WIND       PRES   REMARKS
FERGUS FALLS   CLOUDY    39  37  93 N13G20    29.68R
WHEATON        CLOUDY    39  34  81 NW22G29   29.71R
MORRIS         CLOUDY    45  39  81 N16       29.62R
ALEXANDRIA     PTSUNNY   47  38  71 N16       29.61F
ELBOW LAKE     CLOUDY    43  38  81 NE12G20   29.65R
WADENA         CLOUDY    41  36  81 N17G23    29.65R
GLENWOOD       CLOUDY    46  39  76 N15       29.60S
APPLETON       CLOUDY    45  37  76 N18       29.63R
BENSON         CLOUDY    52  36  54 NE14      29.62R
ORTONVILLE     CLOUDY    39  34  81 N21G26    29.66R
MADISON        CLOUDY    43  41  93 N16G25    29.64S
WILLMAR        FAIR      54  45  71 NW15      29.58R
$$
MNZ033>034-036-042>043-049>051-058-059-252200-
   Central Minnesota

CITY           SKY/WX    TMP DP  RH WIND       PRES   REMARKS
ST CLOUD       CLOUDY    62  46  55 N6        29.54S
SAUK CENTRE    FAIR      50  40  69 N16       29.58S
PAYNESVILLE    CLOUDY    58  42  54 N9        29.55F
AITKIN         CLOUDY    57  37  47 N17G23    29.59R
PINE RIVER     CLOUDY    43  37  81 N10G17    29.69R
BRAINERD       CLOUDY    50  39  66 N15G23    29.61R
STAPLES        CLOUDY    43  36  75 N15       29.64R
LONG PRAIRIE   FAIR      46  37  71 NW14G22   29.59F
LITTLE FALLS   CLOUDY    52  39  62 N8        29.59R
LITCHFIELD     CLOUDY    59  48  67 CALM      29.54F
BUFFALO        RAIN      55  49  80 SE6       29.55S
MAPLE LAKE     PTSUNNY   61  48  61 SE5       29.54F
HUTCHINSON     RAIN      56  51  83 N5        29.54F
$$
MNZ037-044-045-052-053-252200-
   East Central Minnesota

CITY           SKY/WX    TMP DP  RH WIND       PRES   REMARKS
PRINCETON      CLOUDY    64  45  48 NE5       29.54F
MORA           CLOUDY    61  41  48 CALM      29.57R
CAMBRIDGE      DRIZZLE   63  48  59 SE5       29.54R
RUSH CITY      LGT RAIN  58  51  78 S5        29.56R
MOOSE LAKE     PTSUNNY   57  37  47 NE8G16    29.56S
HINCKLEY       MOCLDY    63  43  48 NE13      29.56R
CLOQUET        CLOUDY    52  36  54 E12G18    29.60S
MCGREGOR       CLOUDY    57  43  58 N14       29.59S
$$
MNZ071>073-080-081-089-090-097-098-252200-
   Southwest Minnesota

CITY           SKY/WX    TMP DP  RH WIND       PRES   REMARKS
MONTEVIDEO     CLOUDY    45  39  81 N16       29.61R
GRANITE FALLS  RAIN      46  42  86 NW16      29.62R
CANBY          CLOUDY    40  37  88 NW18G24   29.65S
MARSHALL       LGT RAIN  40  38  93 N20G26    29.60S FOG
REDWOOD FALLS  LGT RAIN  45  41  86 W15       29.57R
OLIVIA         RAIN      52  45  76 NW10      29.55R
PIPESTONE      RAIN      39  34  81 N13G18    29.60R
WINDOM         LGT RAIN  41  41 100 N18       29.56F
WORTHINGTON    LGT RAIN  40  38  93 N13       29.58R
JACKSON        RAIN      41  41 100 N7        29.57F
TRACY          LGT RAIN  40  40  98 N15       29.60S
SLAYTON        LGT RAIN  38  37  99 N20       29.58S
$$
MNZ065>067-074>077-082>085-091>093-252200-
   South Central Minnesota

CITY           SKY/WX    TMP DP  RH WIND       PRES   REMARKS
MANKATO        LGT RAIN  46  45  96 NE6       29.55F
NEW ULM        DRIZZLE   46  45  93 W9        29.56R
ST JAMES       LGT RAIN  45  43  93 NW7       29.58R
FAIRMONT       LGT RAIN  44  42  93 N6        29.56S
GLENCOE        LGT RAIN  52  51  98 NE3       29.52F
FARIBAULT      DRIZZLE   48  46  93 CALM      29.56F
OWATONNA       DRIZZLE   48  46  93 CALM      29.55F
WASECA         LGT RAIN  45  43  93 NE7       29.55F
ALBERT LEA     LGT RAIN  48  46  93 NE6       29.52F
$$
MNZ078>079-086>088-094>096-252200-
   Southeast Minnesota

CITY           SKY/WX    TMP DP  RH WIND       PRES   REMARKS
ROCHESTER      LGT RAIN  53  52  96 NE8       29.55F FOG
RED WING       RAIN      54  50  87 CALM      29.56S
STANTON        LGT RAIN  51  48  89 CALM      29.55F
DODGE CENTER   RAIN      50  48  93 N5        29.55F
WINONA         DRIZZLE   59  55  88 CALM      29.57S
AUSTIN         LGT RAIN  52  48  87 N6        29.53F
PRESTON        CLOUDY    56  51  85 N5        29.55S
$$
ABBREVIATIONS USED IN REMARKS
   TC - TEMPERATURES IN CELSIUS
  WCI - WIND CHILL INDEX
   HX - HEAT INDEX
  VSB - VISIBILITY
$$




USA.gov is the U.S. government's official web portal to all federal, state and local government web resources and services.